Location: Zagreb
(45.8000°N, 16.0000°E)
Time: 08:20:52
(UTC+01:00)

N. Korean satellite - Pass Details

Date: 08 December 2021
Orbit: 447 x 491 km, 97.3° (Epoch: 23 January)

Event Time Altitude Azimuth Distance (km) Brightness Sun altitude
Rises 05:29:01 0° 8° (N) 2,463 10.1 -19.3°
Reaches altitude 10° 05:31:04 10° 5° (N) 1,584 9.1 -18.9°
Maximum altitude 05:34:24 60° 286° (WNW) 520 6.3 -18.4°
Drops below altitude 10° 05:37:43 10° 205° (SSW) 1,572 9.0 -17.8°
Sets 05:39:45 0° 202° (SSW) 2,442 10.1 -17.4°
